Orbital Elements at Epoch 2459200.5 (2020-Dec-17.0) TDB
Reference: JPL 35 (heliocentric ecliptic J2000)
Element | Value | Uncertainty (1-sigma) | Units |
e | .01661620671630029 | 3.0883e-08 | |
a | 2.842823764510511 | 1.0603e-08 | au |
q | 2.795586817181393 | 8.6181e-08 | au |
i | 1.215104340271513 | 3.1304e-06 | deg |
node | 278.1567489737391 | 0.00015452 | deg |
peri | 1.634613287207423 | 0.00018463 | deg |
M | 139.1629197692475 | 0.00010139 | deg |
tp | 2458523.724911897145 (2019-Feb-09.22491190) | 0.00049288 | TDB |
period | 1750.74676588431 4.79 | 9.7943e-06 2.682e-08 | d yr |
n | .2056265400656972 | 1.1504e-09 | deg/d |
Q | 2.890060711839628 | 1.0779e-08 | au |
|
| | Orbit Determination Parameters
Additional Information
|